Regional Weather Roundup
Issued by NWS

Home | Current Version | Previous Version | Graphics & Text | Print | Product List | Glossary On
Versions: 1 2 3 4 5 6 7 8 9 10 11 12 13 14 15 16 17 18 19 20 21 22 23 24 25 26 27 28 29 30 31 32 33 34 35 36 37 38 39 40 41 42 43 44 45 46 47 48 49 50
000
ASUS43 KTOP 301508
RWRKS

WEATHER ROUNDUP FOR KANSAS
NATIONAL WEATHER SERVICE GOODLAND KS
900 AM CST FRI JAN 30 2015

NOTE:  "FAIR" INDICATES FEW OR NO CLOUDS BELOW 12,000 FEET WITH NO
SIGNIFICANT WEATHER AND/OR OBSTRUCTIONS TO VISIBILITY.

KSZ001>006-013>018-027>032-041>047-301600-
NORTHWEST KANSAS

CITY           SKY/WX    TMP DP  RH WIND       PRES   REMARKS
GOODLAND       CLOUDY    33  25  72 S17       30.30F WCI  22
HAYS           CLOUDY    25  14  63 S5        30.45F
HILL CITY      CLOUDY    26  20  77 CALM      30.42F
RUSSELL        CLOUDY    27  23  85 S6        30.45F
$$

KSZ061>065-074>080-084>089-301600-
SOUTHWEST KANSAS

CITY           SKY/WX    TMP DP  RH WIND       PRES   REMARKS
DODGE CITY     PTSUNNY   30  24  78 S7        30.44F
ELKHART          N/A     36  24  62 S12         N/A  WCI  28
GARDEN CITY    CLOUDY    34  25  69 S14       30.40F WCI  25
LIBERAL        CLOUDY    37  25  60 S9        30.44F
PRATT            N/A     30  27  86 S5        30.49F
$$

KSZ066>073-081>083-090>101-301600-
SOUTHEAST KANSAS

CITY           SKY/WX    TMP DP  RH WIND       PRES   REMARKS
CHANUTE        PTSUNNY   26  24  92 CALM      30.55R
COFFEYVILLE    MOSUNNY   28  24  85 N5        30.57R
HUTCHINSON     CLOUDY    29  25  85 CALM      30.52S
MEDICINE LODGE   N/A     26  23  88 CALM      30.51F
NEWTON         CLOUDY    28  21  74 S7        30.53S
PARSONS        PTSUNNY   28  25  88 CALM      30.57R
WICHITA INTL   CLOUDY    30  25  81 CALM      30.53F
WICHITA JABRA  CLOUDY    28  25  88 S3        30.53S
WICHITA MCCONL CLOUDY    30  25  82 SE1       30.54S
WINFIELD       PTSUNNY   27  24  89 CALM      30.56R
$$

KSZ007>012-019>026-033>040-048>060-102>105-301600-
NORTHEAST KANSAS

CITY           SKY/WX    TMP DP  RH WIND       PRES   REMARKS
CONCORDIA      PTSUNNY   25  23  92 E5        30.49F
EMPORIA        CLOUDY    23  22  96 CALM      30.53F
LAWRENCE       SUNNY     22  20  92 NW5       30.57R
MANHATTAN      PTSUNNY   21  18  88 CALM      30.55S
MARYSVILLE     MOSUNNY   19  19 100 CALM      30.53S
OLATHE IND     SUNNY     26  22  84 NE5       30.55R
OLATHE EXE     SUNNY     26  22  84 NE6       30.54R
SALINA         CLOUDY    25  20  81 S5        30.52F
TOPEKA BILLARD MOSUNNY   23  20  88 W5        30.58R
TOPEKA FORBES  MOSUNNY   26  22  84 NW5       30.56R
$$


USA.gov is the U.S. government's official web portal to all federal, state and local government web resources and services.